Thedford, NE

11:09 AM CDT on May 22, 2017 (GMT -0500)
Thedford

Weather History for KTIF - December, 2013

Change the Weather History Date:

Sunday, December 1, 2013

  Actual Average (KANW) Record (KANW)
Temperature  
Mean Temperature 39 °F -  
Max Temperature 56 °F 40 °F 68 °F (1998)
Min Temperature 22 °F 21 °F 0 °F (2005)
Degree Days  
Heating Degree Days 26    
Moisture  
Dew Point 27 °F    
Average Humidity 69    
Maximum Humidity 90    
Minimum Humidity 33    
Precipitation  
Precipitation 0.00 in - - ()
Sea Level Pressure  
Sea Level Pressure 29.97 in    
Wind  
Wind Speed 1 mph (WSW)    
Max Wind Speed 10 mph    
Max Gust Speed -    
Visibility 10 miles    
Events      
Averages and records for this station are not official NWS values.
T = Trace of Precipitation, MM = Missing Value Source: NWS Daily Summary

Daily Weather History Graph

Daily Weather History Graph

Search for Another Location

Airport or City:

Trip Planner

Search our weather history database for the weather conditions in past years. The results will help you decide how hot, cold, wet, or windy it might be!

Date:

Astronomy

Dec. 01, 2013 Rise Set
Actual Time 7:50 AM CST 5:11 PM CST
Civil Twilight 7:19 AM CST 5:42 PM CST
Nautical Twilight 6:45 AM CST 6:17 PM CST
Astronomical Twilight 6:11 AM CST 6:51 PM CST
Moon 6:09 AM CST (12/1) 4:24 PM CST (12/1)
Length of Visible Light 10h 23m
Length of Day
9h 20m
Waning Crescent, 2% of the Moon is Illuminated
Dec 1
Waning Crescent
Dec 2
New
Dec 9
First Quarter
Dec 17
Full
Dec 25
Last Quarter

Hourly Weather History & Observations

Time (CST) Temp. Windchill Dew Point Humidity Pressure Visibility Wind Dir Wind Speed Gust Speed Precip Events Conditions
12:15 AM 31.3 °F - 26.4 °F 82% 30.15 in 10.0 mi Calm Calm - N/A   Clear
12:35 AM 31.1 °F - 26.8 °F 84% 30.14 in 10.0 mi Calm Calm - N/A   Clear
12:55 AM 32.4 °F - 27.5 °F 82% 30.13 in 10.0 mi Calm Calm - N/A   Clear
1:15 AM 31.8 °F - 27.3 °F 83% 30.13 in 10.0 mi Calm Calm - N/A   Clear
1:35 AM 32.0 °F - 27.3 °F 83% 30.11 in 10.0 mi Calm Calm - N/A   Clear
1:55 AM 32.0 °F - 27.3 °F 83% 30.10 in 10.0 mi Calm Calm - N/A   Clear
2:15 AM 32.0 °F - 27.1 °F 82% 30.10 in 10.0 mi Calm Calm - N/A   Clear
2:35 AM 29.7 °F - 25.3 °F 84% 30.10 in 10.0 mi Calm Calm - N/A   Clear
2:55 AM 29.8 °F - 26.2 °F 86% 30.11 in 10.0 mi Calm Calm - N/A   Clear
3:15 AM 29.3 °F 25.6 °F 25.9 °F 87% 30.10 in 10.0 mi SSW 3.5 mph - N/A   Clear
3:35 AM 30.2 °F - 26.2 °F 85% 30.10 in 10.0 mi Calm Calm - N/A   Clear
3:55 AM 28.2 °F - 24.8 °F 87% 30.09 in 10.0 mi Calm Calm - N/A   Clear
4:15 AM 27.1 °F 23.2 °F 24.3 °F 89% 30.10 in 10.0 mi NW 3.5 mph - N/A   Clear
4:35 AM 26.4 °F - 23.5 °F 89% 30.10 in 10.0 mi Calm Calm - N/A   Clear
4:55 AM 26.4 °F - 23.5 °F 89% 30.09 in 10.0 mi Calm Calm - N/A   Clear
5:15 AM 25.9 °F - 23.2 °F 90% 30.10 in 10.0 mi Calm Calm - N/A   Clear
5:35 AM 27.1 °F - 24.4 °F 90% 30.10 in 10.0 mi Calm Calm - N/A   Clear
5:55 AM 24.8 °F - 21.9 °F 89% 30.10 in 10.0 mi Calm Calm - N/A   Clear
6:15 AM 24.6 °F - 21.9 °F 89% 30.09 in 10.0 mi Calm Calm - N/A   Clear
6:35 AM 25.0 °F - 22.5 °F 90% 30.09 in 10.0 mi Calm Calm - N/A   Clear
6:55 AM 24.4 °F - 21.7 °F 89% 30.09 in 10.0 mi Calm Calm - N/A   Clear
7:15 AM 22.8 °F - 20.1 °F 89% 30.08 in 10.0 mi Calm Calm - N/A   Clear
7:35 AM 23.7 °F - 21.0 °F 89% 30.08 in 10.0 mi Calm Calm - N/A   Clear
7:55 AM 22.6 °F - 19.9 °F 89% 30.07 in 10.0 mi Calm Calm - N/A   Clear
8:15 AM 24.4 °F 18.6 °F 21.7 °F 89% 30.07 in 10.0 mi SE 4.6 mph - N/A   Clear
8:35 AM 28.6 °F - 26.1 °F 90% 30.07 in 10.0 mi Calm Calm - N/A   Clear
8:55 AM 30.0 °F - 27.1 °F 89% 30.07 in 10.0 mi Calm Calm - N/A   Clear
9:15 AM 30.6 °F - 27.7 °F 89% 30.07 in 10.0 mi Calm Calm - N/A   Clear
9:35 AM 31.8 °F - 29.1 °F 90% 30.05 in 10.0 mi Calm Calm - N/A   Clear
9:55 AM 35.1 °F - 30.4 °F 83% 30.05 in 10.0 mi Calm Calm - N/A   Scattered Clouds
10:15 AM 35.4 °F - 30.9 °F 84% 30.05 in 10.0 mi Calm Calm - N/A   Overcast
10:35 AM 36.5 °F 33.9 °F 30.4 °F 78% 30.05 in 10.0 mi SW 3.5 mph - N/A   Overcast
10:55 AM 37.6 °F 35.1 °F 30.7 °F 76% 30.04 in 10.0 mi WSW 3.5 mph - N/A   Mostly Cloudy
11:15 AM 38.5 °F 36.1 °F 30.7 °F 74% 30.04 in 10.0 mi WSW 3.5 mph - N/A   Overcast
11:35 AM 40.1 °F 36.1 °F 29.7 °F 66% 30.03 in 10.0 mi WSW 5.8 mph - N/A   Overcast
11:55 AM 41.2 °F 38.2 °F 29.5 °F 63% 30.01 in 10.0 mi West 4.6 mph - N/A   Mostly Cloudy
12:15 PM 42.3 °F 39.4 °F 29.5 °F 61% 29.99 in 10.0 mi West 4.6 mph - N/A   Scattered Clouds
12:35 PM 43.7 °F - 30.0 °F 59% 29.97 in 10.0 mi Calm Calm - N/A   Scattered Clouds
12:55 PM 45.7 °F - 30.0 °F 54% 29.96 in 10.0 mi Calm Calm - N/A   Clear
1:15 PM 46.9 °F - 29.5 °F 51% 29.95 in 10.0 mi Calm Calm - N/A   Clear
1:35 PM 48.9 °F - 30.0 °F 48% 29.93 in 10.0 mi SW 3.5 mph - N/A   Clear
1:55 PM 50.9 °F - 29.7 °F 44% 29.92 in 10.0 mi West 8.1 mph - N/A   Clear
2:15 PM 50.9 °F - 29.8 °F 44% 29.91 in 10.0 mi West 4.6 mph - N/A   Clear
2:35 PM 51.6 °F - 29.3 °F 42% 29.91 in 10.0 mi West 10.4 mph - N/A   Clear
2:55 PM 54.3 °F - 29.3 °F 38% 29.90 in 10.0 mi West 5.8 mph - N/A   Clear
3:15 PM 54.9 °F - 29.1 °F 37% 29.89 in 10.0 mi Calm Calm - N/A   Clear
3:35 PM 56.1 °F - 27.0 °F 33% 29.89 in 10.0 mi WNW 8.1 mph - N/A   Scattered Clouds
3:55 PM 55.6 °F - 27.0 °F 33% 29.88 in 10.0 mi West 6.9 mph - N/A   Scattered Clouds
4:15 PM 54.7 °F - 27.1 °F 35% 29.87 in 10.0 mi WNW 3.5 mph - N/A   Clear
4:35 PM 51.3 °F - 27.1 °F 39% 29.87 in 10.0 mi WNW 3.5 mph - N/A   Clear
4:55 PM 48.2 °F - 27.1 °F 44% 29.86 in 10.0 mi WNW 3.5 mph - N/A   Clear
5:15 PM 46.2 °F 45.0 °F 27.0 °F 47% 29.85 in 10.0 mi West 3.5 mph - N/A   Clear
5:35 PM 44.2 °F 41.8 °F 27.3 °F 51% 29.85 in 10.0 mi WSW 4.6 mph - N/A   Clear
5:55 PM 41.0 °F 39.0 °F 26.8 °F 57% 29.85 in 10.0 mi SW 3.5 mph - N/A   Clear
6:15 PM 41.0 °F - 27.1 °F 58% 29.85 in 10.0 mi Calm Calm - N/A   Clear
6:35 PM 39.9 °F - 26.8 °F 59% 29.85 in 10.0 mi Calm Calm - N/A   Clear
6:55 PM 40.1 °F - 27.1 °F 60% 29.84 in 10.0 mi Calm Calm - N/A   Clear
7:15 PM 40.8 °F 38.8 °F 27.5 °F 59% 29.83 in 10.0 mi SSE 3.5 mph - N/A   Clear
7:35 PM 40.1 °F - 27.5 °F 61% 29.82 in 10.0 mi Calm Calm - N/A   Clear
7:55 PM 38.5 °F - 27.5 °F 65% 29.81 in 10.0 mi Calm Calm - N/A   Clear
8:15 PM 39.0 °F - 27.5 °F 63% 29.80 in 10.0 mi Calm Calm - N/A   Scattered Clouds
8:35 PM 39.0 °F - 28.0 °F 65% 29.79 in 10.0 mi Calm Calm - N/A   Scattered Clouds
8:55 PM 38.5 °F - 27.9 °F 66% 29.79 in 10.0 mi Calm Calm - N/A   Scattered Clouds
9:15 PM 39.4 °F - 28.2 °F 64% 29.78 in 10.0 mi Calm Calm - N/A   Scattered Clouds
9:35 PM 43.0 °F 39.5 °F 28.9 °F 58% 29.78 in 10.0 mi SSW 5.8 mph - N/A   Mostly Cloudy
9:55 PM 43.0 °F 39.5 °F 28.8 °F 57% 29.78 in 10.0 mi SSW 5.8 mph - N/A   Mostly Cloudy
10:15 PM 42.3 °F 40.5 °F 28.9 °F 59% 29.77 in 10.0 mi SW 3.5 mph - N/A   Mostly Cloudy
10:35 PM 42.4 °F 39.6 °F 29.1 °F 59% 29.76 in 10.0 mi SW 4.6 mph - N/A   Overcast
10:55 PM 42.1 °F 39.2 °F 29.3 °F 61% 29.75 in 10.0 mi WSW 4.6 mph - N/A   Overcast
11:15 PM 43.9 °F 39.9 °F 29.3 °F 57% 29.74 in 10.0 mi WSW 6.9 mph - N/A   Overcast
11:35 PM 44.6 °F 42.2 °F 29.7 °F 56% 29.74 in 10.0 mi SW 4.6 mph - N/A   Overcast
11:55 PM 45.0 °F 42.6 °F 29.7 °F 55% 29.73 in 10.0 mi WSW 4.6 mph - N/A   Overcast